User: anonymous   Login
Location: Bothwell
(42.3833°S, 147.0000°E)
Time: 06:45:35
(UTC+10:00)
Language:

TIGRISAT - Orbit

View from above orbital plane
View from above orbital plane
View from above satellite
View from above satellite

Ground track
Ground track

The orbit data is extracted from the following two-line orbital elements,

1 40043U 14033AK  22267.46879886  .00001274  00000-0  19063-3 0  9993
2 40043  97.6574  91.4067 0058635 194.3942 165.5600 14.75177712444228
Epoch (UTC): 24 September 2022 11:15:04
Eccentricity: 0.0058635
inclination: 97.6574°
perigee height: 603 km
apogee height: 686 km
right ascension of ascending node: 91.4067°
argument of perigee: 194.3942°
revolutions per day: 14.75177712
mean anomaly at epoch: 165.5600°
orbit number at epoch: 44422

The dashed part of the orbit path shows where the satellite is in the earth's shadow,  

DLR